Year,Month,Day,Hour,Minute,Value (Times are PST for temperature in C)
2021,06,07,00,00,9.80
2021,06,07,00,01,9.80
2021,06,07,00,02,9.80
2021,06,07,00,03,9.80
2021,06,07,00,04,9.80
2021,06,07,00,05,9.80
2021,06,07,00,06,9.80
2021,06,07,00,07,9.70
2021,06,07,00,08,9.70
2021,06,07,00,09,9.70
2021,06,07,00,10,9.70
2021,06,07,00,11,9.70
2021,06,07,00,12,9.60
2021,06,07,00,13,9.60
2021,06,07,00,14,9.60
2021,06,07,00,15,9.50
2021,06,07,00,16,9.50
2021,06,07,00,17,9.50
2021,06,07,00,18,9.40
2021,06,07,00,19,9.40
2021,06,07,00,20,9.30
2021,06,07,00,21,9.30
2021,06,07,00,22,9.20
2021,06,07,00,23,9.20
2021,06,07,00,24,9.20
2021,06,07,00,25,9.10
2021,06,07,00,26,9.10
2021,06,07,00,27,9.10
2021,06,07,00,28,9.00
2021,06,07,00,29,9.00
2021,06,07,00,30,8.90
2021,06,07,00,31,8.90
2021,06,07,00,32,8.90
2021,06,07,00,33,8.80
2021,06,07,00,34,8.80
2021,06,07,00,35,8.80
2021,06,07,00,36,8.80
2021,06,07,00,37,8.70
2021,06,07,00,38,8.70
2021,06,07,00,39,8.70
2021,06,07,00,40,8.70
2021,06,07,00,41,8.70
2021,06,07,00,42,8.60
2021,06,07,00,43,8.60
2021,06,07,00,44,8.60
2021,06,07,00,45,8.60
2021,06,07,00,46,8.60
2021,06,07,00,47,8.60
2021,06,07,00,48,8.50
2021,06,07,00,49,8.50
2021,06,07,00,50,8.50
2021,06,07,00,51,8.50
2021,06,07,00,52,8.50
2021,06,07,00,53,8.50
2021,06,07,00,54,8.50
2021,06,07,00,55,8.50
2021,06,07,00,56,8.50
2021,06,07,00,57,8.50
2021,06,07,00,58,8.50
2021,06,07,00,59,8.50
2021,06,07,01,00,8.50
2021,06,07,01,01,8.60
2021,06,07,01,02,8.60
2021,06,07,01,03,8.60
2021,06,07,01,04,8.60
2021,06,07,01,05,8.60
2021,06,07,01,06,8.60
2021,06,07,01,07,8.60
2021,06,07,01,08,8.60
2021,06,07,01,09,8.60
2021,06,07,01,10,8.60
2021,06,07,01,11,8.60
2021,06,07,01,12,8.60
2021,06,07,01,13,8.60
2021,06,07,01,14,8.60
2021,06,07,01,15,8.60
2021,06,07,01,16,8.60
2021,06,07,01,17,8.60
2021,06,07,01,18,8.60
2021,06,07,01,19,8.60
2021,06,07,01,20,8.60
2021,06,07,01,21,8.60
2021,06,07,01,22,8.60
2021,06,07,01,23,8.60
2021,06,07,01,24,8.60
2021,06,07,01,25,8.60
2021,06,07,01,26,8.60
2021,06,07,01,27,8.60
2021,06,07,01,28,8.60
2021,06,07,01,29,8.60
2021,06,07,01,30,8.60
2021,06,07,01,31,8.60
2021,06,07,01,32,8.60
2021,06,07,01,33,8.60
2021,06,07,01,34,8.60
2021,06,07,01,35,8.60
2021,06,07,01,36,8.60
2021,06,07,01,37,8.60
2021,06,07,01,38,8.60
2021,06,07,01,39,8.60
2021,06,07,01,40,8.60
2021,06,07,01,41,8.60
2021,06,07,01,42,8.60
2021,06,07,01,43,8.60
2021,06,07,01,44,8.60
2021,06,07,01,45,8.60
2021,06,07,01,46,8.60
2021,06,07,01,47,8.60
2021,06,07,01,48,8.60
2021,06,07,01,49,8.60
2021,06,07,01,50,8.60
2021,06,07,01,51,8.60
2021,06,07,01,52,8.60
2021,06,07,01,53,8.60
2021,06,07,01,54,8.60
2021,06,07,01,55,8.60
2021,06,07,01,56,8.60
2021,06,07,01,57,8.60
2021,06,07,01,58,8.60
2021,06,07,01,59,8.60
2021,06,07,02,00,8.60
2021,06,07,02,01,8.60
2021,06,07,02,02,8.60
2021,06,07,02,03,8.60
2021,06,07,02,04,8.60
2021,06,07,02,05,8.70
2021,06,07,02,06,8.70
2021,06,07,02,07,8.70
2021,06,07,02,08,8.70
2021,06,07,02,09,8.70
2021,06,07,02,10,8.70
2021,06,07,02,11,8.70
2021,06,07,02,12,8.70
2021,06,07,02,13,8.70
2021,06,07,02,14,8.60
2021,06,07,02,15,8.60
2021,06,07,02,16,8.60
2021,06,07,02,17,8.60
2021,06,07,02,18,8.60
2021,06,07,02,19,8.60
2021,06,07,02,20,8.60
2021,06,07,02,21,8.60
2021,06,07,02,22,8.60
2021,06,07,02,23,8.60
2021,06,07,02,24,8.60
2021,06,07,02,25,8.50
2021,06,07,02,26,8.50
2021,06,07,02,27,8.50
2021,06,07,02,28,8.50
2021,06,07,02,29,8.50
2021,06,07,02,30,8.40
2021,06,07,02,31,8.40
2021,06,07,02,32,8.40
2021,06,07,02,33,8.40
2021,06,07,02,34,8.40
2021,06,07,02,35,8.40
2021,06,07,02,36,8.40
2021,06,07,02,37,8.40
2021,06,07,02,38,8.40
2021,06,07,02,39,8.40
2021,06,07,02,40,8.40
2021,06,07,02,41,8.40
2021,06,07,02,42,8.40
2021,06,07,02,43,8.40
2021,06,07,02,44,8.40
2021,06,07,02,45,8.40
2021,06,07,02,46,8.40
2021,06,07,02,47,8.40
2021,06,07,02,48,8.40
2021,06,07,02,49,8.40
2021,06,07,02,50,8.40
2021,06,07,02,51,8.40
2021,06,07,02,52,8.40
2021,06,07,02,53,8.40
2021,06,07,02,54,8.40
2021,06,07,02,55,8.40
2021,06,07,02,56,8.40
2021,06,07,02,57,8.40
2021,06,07,02,58,8.40
2021,06,07,02,59,8.40
2021,06,07,03,00,8.30
2021,06,07,03,01,8.30
2021,06,07,03,02,8.30
2021,06,07,03,03,8.30
2021,06,07,03,04,8.30
2021,06,07,03,05,8.30
2021,06,07,03,06,8.20
2021,06,07,03,07,8.20
2021,06,07,03,08,8.20
2021,06,07,03,09,8.20
2021,06,07,03,10,8.10
2021,06,07,03,11,8.10
2021,06,07,03,12,8.10
2021,06,07,03,13,8.10
2021,06,07,03,14,8.00
2021,06,07,03,15,8.00
2021,06,07,03,16,7.90
2021,06,07,03,17,7.90
2021,06,07,03,18,7.90
2021,06,07,03,19,7.90
2021,06,07,03,20,7.90
2021,06,07,03,21,7.90
2021,06,07,03,22,7.80
2021,06,07,03,23,7.80
2021,06,07,03,24,7.80
2021,06,07,03,25,7.80
2021,06,07,03,26,7.80
2021,06,07,03,27,7.80
2021,06,07,03,28,7.80
2021,06,07,03,29,7.80
2021,06,07,03,30,7.80
2021,06,07,03,31,7.80
2021,06,07,03,32,7.80
2021,06,07,03,33,7.80
2021,06,07,03,34,7.80
2021,06,07,03,35,7.80
2021,06,07,03,36,7.90
2021,06,07,03,37,7.90
2021,06,07,03,38,7.90
2021,06,07,03,39,7.90
2021,06,07,03,40,7.90
2021,06,07,03,41,7.90
2021,06,07,03,42,7.90
2021,06,07,03,43,7.90
2021,06,07,03,44,7.90
2021,06,07,03,45,7.90
2021,06,07,03,46,7.90
2021,06,07,03,47,7.90
2021,06,07,03,48,7.90
2021,06,07,03,49,7.90
2021,06,07,03,50,7.90
2021,06,07,03,51,7.90
2021,06,07,03,52,7.90
2021,06,07,03,53,7.90
2021,06,07,03,54,7.90
2021,06,07,03,55,7.90
2021,06,07,03,56,7.90
2021,06,07,03,57,7.90
2021,06,07,03,58,7.90
2021,06,07,03,59,7.90
2021,06,07,04,00,8.00
2021,06,07,04,01,8.00
2021,06,07,04,02,8.00
2021,06,07,04,03,8.00
2021,06,07,04,04,8.00
2021,06,07,04,05,8.00
2021,06,07,04,06,8.00
2021,06,07,04,07,7.90
2021,06,07,04,08,7.90
2021,06,07,04,09,7.80
2021,06,07,04,10,7.80
2021,06,07,04,11,7.80
2021,06,07,04,12,7.80
2021,06,07,04,13,7.70
2021,06,07,04,14,7.70
2021,06,07,04,15,7.70
2021,06,07,04,16,7.70
2021,06,07,04,17,7.70
2021,06,07,04,18,7.60
2021,06,07,04,19,7.60
2021,06,07,04,20,7.60
2021,06,07,04,21,7.60
2021,06,07,04,22,7.60
2021,06,07,04,23,7.60
2021,06,07,04,24,7.60
2021,06,07,04,25,7.50
2021,06,07,04,26,7.50
2021,06,07,04,27,7.50
2021,06,07,04,28,7.40
2021,06,07,04,29,7.40
2021,06,07,04,30,7.40
2021,06,07,04,31,7.40
2021,06,07,04,32,7.40
2021,06,07,04,33,7.40
2021,06,07,04,34,7.40
2021,06,07,04,35,7.40
2021,06,07,04,36,7.40
2021,06,07,04,37,7.40
2021,06,07,04,38,7.30
2021,06,07,04,39,7.30
2021,06,07,04,40,7.20
2021,06,07,04,41,7.20
2021,06,07,04,42,7.20
2021,06,07,04,43,7.20
2021,06,07,04,44,7.10
2021,06,07,04,45,7.10
2021,06,07,04,46,7.10
2021,06,07,04,47,7.10
2021,06,07,04,48,7.10
2021,06,07,04,49,7.00
2021,06,07,04,50,7.00
2021,06,07,04,51,7.00
2021,06,07,04,52,7.00
2021,06,07,04,53,7.00
2021,06,07,04,54,6.90
2021,06,07,04,55,6.90
2021,06,07,04,56,6.90
2021,06,07,04,57,6.90
2021,06,07,04,58,6.90
2021,06,07,04,59,6.90
2021,06,07,05,00,6.80
2021,06,07,05,01,6.80
2021,06,07,05,02,6.80
2021,06,07,05,03,6.80
2021,06,07,05,04,6.70
2021,06,07,05,05,6.70
2021,06,07,05,06,6.70
2021,06,07,05,07,6.70
2021,06,07,05,08,6.70
2021,06,07,05,09,6.70
2021,06,07,05,10,6.60
2021,06,07,05,11,6.60
2021,06,07,05,12,6.60
2021,06,07,05,13,6.60
2021,06,07,05,14,6.70
2021,06,07,05,15,6.70
2021,06,07,05,16,6.70
2021,06,07,05,17,6.70
2021,06,07,05,18,6.80
2021,06,07,05,19,6.80
2021,06,07,05,20,6.80
2021,06,07,05,21,6.80
2021,06,07,05,22,6.80
2021,06,07,05,23,6.80
2021,06,07,05,24,6.90
2021,06,07,05,25,6.90
2021,06,07,05,26,6.80
2021,06,07,05,27,6.80
2021,06,07,05,28,6.80
2021,06,07,05,29,6.70
2021,06,07,05,30,6.70
2021,06,07,05,31,6.70
2021,06,07,05,32,6.60
2021,06,07,05,33,6.60
2021,06,07,05,34,6.60
2021,06,07,05,35,6.60
2021,06,07,05,36,6.50
2021,06,07,05,37,6.50
2021,06,07,05,38,6.50
2021,06,07,05,39,6.50
2021,06,07,05,40,6.50
2021,06,07,05,41,6.50
2021,06,07,05,42,6.40
2021,06,07,05,43,6.40
2021,06,07,05,44,6.40
2021,06,07,05,45,6.50
2021,06,07,05,46,6.50
2021,06,07,05,47,6.50
2021,06,07,05,48,6.60
2021,06,07,05,49,6.60
2021,06,07,05,50,6.60
2021,06,07,05,51,6.60
2021,06,07,05,52,6.60
2021,06,07,05,53,6.60
2021,06,07,05,54,6.70
2021,06,07,05,55,6.70
2021,06,07,05,56,6.70
2021,06,07,05,57,6.70
2021,06,07,05,58,6.80
2021,06,07,05,59,6.80
2021,06,07,06,00,6.90
2021,06,07,06,01,6.90
2021,06,07,06,02,7.00
2021,06,07,06,03,7.10
2021,06,07,06,04,7.10
2021,06,07,06,05,7.20
2021,06,07,06,06,7.20
2021,06,07,06,07,7.20
2021,06,07,06,08,7.20
2021,06,07,06,09,7.20
2021,06,07,06,10,7.20
2021,06,07,06,11,7.30
2021,06,07,06,12,7.30
2021,06,07,06,13,7.30
2021,06,07,06,14,7.30
2021,06,07,06,15,7.40
2021,06,07,06,16,7.40
2021,06,07,06,17,7.50
2021,06,07,06,18,7.50
2021,06,07,06,19,7.60
2021,06,07,06,20,7.60
2021,06,07,06,21,7.70
2021,06,07,06,22,7.80
2021,06,07,06,23,7.90
2021,06,07,06,24,7.90
2021,06,07,06,25,7.90
2021,06,07,06,26,8.00
2021,06,07,06,27,8.00
2021,06,07,06,28,8.10
2021,06,07,06,29,8.10
2021,06,07,06,30,8.20
2021,06,07,06,31,8.20
2021,06,07,06,32,8.20
2021,06,07,06,33,8.20
2021,06,07,06,34,8.20
2021,06,07,06,35,8.20
2021,06,07,06,36,8.30
2021,06,07,06,37,8.30
2021,06,07,06,38,8.30
2021,06,07,06,39,8.30
2021,06,07,06,40,8.30
2021,06,07,06,41,8.30
2021,06,07,06,42,8.30
2021,06,07,06,43,8.30
2021,06,07,06,44,8.30
2021,06,07,06,45,8.30
2021,06,07,06,46,8.30
2021,06,07,06,47,8.40
2021,06,07,06,48,8.40
2021,06,07,06,49,8.40
2021,06,07,06,50,8.40
2021,06,07,06,51,8.40
2021,06,07,06,52,8.50
2021,06,07,06,53,8.50
2021,06,07,06,54,8.50
2021,06,07,06,55,8.60
2021,06,07,06,56,8.60
2021,06,07,06,57,8.60
2021,06,07,06,58,8.60
2021,06,07,06,59,8.70
2021,06,07,07,00,8.70
2021,06,07,07,01,8.70
2021,06,07,07,02,8.80
2021,06,07,07,03,8.80
2021,06,07,07,04,8.80
2021,06,07,07,05,8.80
2021,06,07,07,06,8.70
2021,06,07,07,07,8.70
2021,06,07,07,08,8.70
2021,06,07,07,09,8.70
2021,06,07,07,10,8.70
2021,06,07,07,11,8.60
2021,06,07,07,12,8.60
2021,06,07,07,13,8.60
2021,06,07,07,14,8.70
2021,06,07,07,15,8.70
2021,06,07,07,16,8.70
2021,06,07,07,17,8.70
2021,06,07,07,18,8.70
2021,06,07,07,19,8.70
2021,06,07,07,20,8.80
2021,06,07,07,21,8.80
2021,06,07,07,22,8.80
2021,06,07,07,23,8.80
2021,06,07,07,24,8.90
2021,06,07,07,25,8.90
2021,06,07,07,26,8.90
2021,06,07,07,27,8.90
2021,06,07,07,28,8.90
2021,06,07,07,29,8.90
2021,06,07,07,30,9.00
2021,06,07,07,31,9.00
2021,06,07,07,32,9.00
2021,06,07,07,33,9.00
2021,06,07,07,34,9.10
2021,06,07,07,35,9.10
2021,06,07,07,36,9.10
2021,06,07,07,37,9.20
2021,06,07,07,38,9.20
2021,06,07,07,39,9.20
2021,06,07,07,40,9.30
2021,06,07,07,41,9.30
2021,06,07,07,42,9.30
2021,06,07,07,43,9.30
2021,06,07,07,44,9.40
2021,06,07,07,45,9.40
2021,06,07,07,46,9.40
2021,06,07,07,47,9.50
2021,06,07,07,48,9.50
2021,06,07,07,49,9.60
2021,06,07,07,50,9.60
2021,06,07,07,51,9.60
2021,06,07,07,52,9.70
2021,06,07,07,53,9.70
2021,06,07,07,54,9.80
2021,06,07,07,55,9.80
2021,06,07,07,56,9.90
2021,06,07,07,57,9.90
2021,06,07,07,58,10.00
2021,06,07,07,59,10.00
2021,06,07,08,00,10.10
2021,06,07,08,01,10.20
2021,06,07,08,02,10.20
2021,06,07,08,03,10.30
2021,06,07,08,04,10.40
2021,06,07,08,05,10.40
2021,06,07,08,06,10.50
2021,06,07,08,07,10.60
2021,06,07,08,08,10.70
2021,06,07,08,09,10.70
2021,06,07,08,10,10.70
2021,06,07,08,11,10.80
2021,06,07,08,12,10.80
2021,06,07,08,13,10.80
2021,06,07,08,14,10.80
2021,06,07,08,15,10.80
2021,06,07,08,16,10.80
2021,06,07,08,17,10.80
2021,06,07,08,18,10.80
2021,06,07,08,19,10.80
2021,06,07,08,20,10.90
2021,06,07,08,21,11.00
2021,06,07,08,22,11.00
2021,06,07,08,23,11.10
2021,06,07,08,24,11.20
2021,06,07,08,25,11.20
2021,06,07,08,26,11.20
2021,06,07,08,27,11.20
2021,06,07,08,28,11.10
2021,06,07,08,29,11.10
2021,06,07,08,30,11.10
2021,06,07,08,31,11.10
2021,06,07,08,32,11.10
2021,06,07,08,33,11.10
2021,06,07,08,34,11.20
2021,06,07,08,35,11.20
2021,06,07,08,36,11.20
2021,06,07,08,37,11.20
2021,06,07,08,38,11.20
2021,06,07,08,39,11.10
2021,06,07,08,40,11.00
2021,06,07,08,41,11.00
2021,06,07,08,42,11.00
2021,06,07,08,43,11.00
2021,06,07,08,44,11.00
2021,06,07,08,45,11.00
2021,06,07,08,46,11.10
2021,06,07,08,47,11.20
2021,06,07,08,48,11.20
2021,06,07,08,49,11.20
2021,06,07,08,50,11.20
2021,06,07,08,51,11.20
2021,06,07,08,52,11.20
2021,06,07,08,53,11.10
2021,06,07,08,54,11.00
2021,06,07,08,55,11.00
2021,06,07,08,56,11.00
2021,06,07,08,57,11.00
2021,06,07,08,58,11.00
2021,06,07,08,59,11.10
2021,06,07,09,00,11.10
2021,06,07,09,01,11.20
2021,06,07,09,02,11.30
2021,06,07,09,03,11.30
2021,06,07,09,04,11.30
2021,06,07,09,05,11.30
2021,06,07,09,06,11.30
2021,06,07,09,07,11.40
2021,06,07,09,08,11.40
2021,06,07,09,09,11.40
2021,06,07,09,10,11.40
2021,06,07,09,11,11.40
2021,06,07,09,12,11.40
2021,06,07,09,13,11.40
2021,06,07,09,14,11.50
2021,06,07,09,15,11.50
2021,06,07,09,16,11.50
2021,06,07,09,17,11.60
2021,06,07,09,18,11.70
2021,06,07,09,19,11.60
2021,06,07,09,20,11.70
2021,06,07,09,21,11.70
2021,06,07,09,22,11.70
2021,06,07,09,23,11.70
2021,06,07,09,24,11.70
2021,06,07,09,25,11.80
2021,06,07,09,26,11.80
2021,06,07,09,27,11.80
2021,06,07,09,28,11.80
2021,06,07,09,29,11.80
2021,06,07,09,30,11.70
2021,06,07,09,31,11.70
2021,06,07,09,32,11.60
2021,06,07,09,33,11.60
2021,06,07,09,34,11.60
2021,06,07,09,35,11.60
2021,06,07,09,36,11.50
2021,06,07,09,37,11.50
2021,06,07,09,38,11.50
2021,06,07,09,39,11.40
2021,06,07,09,40,11.40
2021,06,07,09,41,11.40
2021,06,07,09,42,11.30
2021,06,07,09,43,11.30
2021,06,07,09,44,11.30
2021,06,07,09,45,11.30
2021,06,07,09,46,11.30
2021,06,07,09,47,11.30
2021,06,07,09,48,11.40
2021,06,07,09,49,11.40
2021,06,07,09,50,11.40
2021,06,07,09,51,11.50
2021,06,07,09,52,11.50
2021,06,07,09,53,11.60
2021,06,07,09,54,11.80
2021,06,07,09,55,11.80
2021,06,07,09,56,11.90
2021,06,07,09,57,12.00
2021,06,07,09,58,12.00
2021,06,07,09,59,12.10
2021,06,07,10,00,12.10
2021,06,07,10,01,12.20
2021,06,07,10,02,12.30
2021,06,07,10,03,12.40
2021,06,07,10,04,12.40
2021,06,07,10,05,12.30
2021,06,07,10,06,12.30
2021,06,07,10,07,12.30
2021,06,07,10,08,12.30
2021,06,07,10,09,12.30
2021,06,07,10,10,12.30
2021,06,07,10,11,12.30
2021,06,07,10,12,12.30
2021,06,07,10,13,12.30
2021,06,07,10,14,12.30
2021,06,07,10,15,12.30
2021,06,07,10,16,12.40
2021,06,07,10,17,12.50
2021,06,07,10,18,12.50
2021,06,07,10,19,12.60
2021,06,07,10,20,12.70
2021,06,07,10,21,12.70
2021,06,07,10,22,12.80
2021,06,07,10,23,12.80
2021,06,07,10,24,12.70
2021,06,07,10,25,12.70
2021,06,07,10,26,12.70
2021,06,07,10,27,12.70
2021,06,07,10,28,12.70
2021,06,07,10,29,12.70
2021,06,07,10,30,12.70
2021,06,07,10,31,12.60
2021,06,07,10,32,12.70
2021,06,07,10,33,12.70
2021,06,07,10,34,12.70
2021,06,07,10,35,12.70
2021,06,07,10,36,12.80
2021,06,07,10,37,12.80
2021,06,07,10,38,12.70
2021,06,07,10,39,12.70
2021,06,07,10,40,12.60
2021,06,07,10,41,12.60
2021,06,07,10,42,12.60
2021,06,07,10,43,12.60
2021,06,07,10,44,12.60
2021,06,07,10,45,12.70
2021,06,07,10,46,12.80
2021,06,07,10,47,12.80
2021,06,07,10,48,13.00
2021,06,07,10,49,13.00
2021,06,07,10,50,13.10
2021,06,07,10,51,13.10
2021,06,07,10,52,13.10
2021,06,07,10,53,13.00
2021,06,07,10,54,12.90
2021,06,07,10,55,12.90
2021,06,07,10,56,12.80
2021,06,07,10,57,12.80
2021,06,07,10,58,12.90
2021,06,07,10,59,13.10
2021,06,07,11,00,13.20
2021,06,07,11,01,13.20
2021,06,07,11,02,13.30
2021,06,07,11,03,13.40
2021,06,07,11,04,13.40
2021,06,07,11,05,13.30
2021,06,07,11,06,13.20
2021,06,07,11,07,13.20
2021,06,07,11,08,13.10
2021,06,07,11,09,13.10
2021,06,07,11,10,13.10
2021,06,07,11,11,13.10
2021,06,07,11,12,13.00
2021,06,07,11,13,13.00
2021,06,07,11,14,13.00
2021,06,07,11,15,13.10
2021,06,07,11,16,13.00
2021,06,07,11,17,12.90
2021,06,07,11,18,13.00
2021,06,07,11,19,13.00
2021,06,07,11,20,13.10
2021,06,07,11,21,13.00
2021,06,07,11,22,12.90
2021,06,07,11,23,12.90
2021,06,07,11,24,12.90
2021,06,07,11,25,12.90
2021,06,07,11,26,13.00
2021,06,07,11,27,13.00
2021,06,07,11,28,13.00
2021,06,07,11,29,12.90
2021,06,07,11,30,12.90
2021,06,07,11,31,12.90
2021,06,07,11,32,12.90
2021,06,07,11,33,12.90
2021,06,07,11,34,12.90
2021,06,07,11,35,12.90
2021,06,07,11,36,12.90
2021,06,07,11,37,12.90
2021,06,07,11,38,12.90
2021,06,07,11,39,12.90
2021,06,07,11,40,13.00
2021,06,07,11,41,13.10
2021,06,07,11,42,13.10
2021,06,07,11,43,13.00
2021,06,07,11,44,13.00
2021,06,07,11,45,13.10
2021,06,07,11,46,13.10
2021,06,07,11,47,13.20
2021,06,07,11,48,13.20
2021,06,07,11,49,13.10
2021,06,07,11,50,13.10
2021,06,07,11,51,13.20
2021,06,07,11,52,13.20
2021,06,07,11,53,13.20
2021,06,07,11,54,13.20
2021,06,07,11,55,13.30
2021,06,07,11,56,13.30
2021,06,07,11,57,13.40
2021,06,07,11,58,13.40
2021,06,07,11,59,13.30
2021,06,07,12,00,13.40
2021,06,07,12,01,13.60
2021,06,07,12,02,13.60
2021,06,07,12,03,13.60
2021,06,07,12,04,13.70
2021,06,07,12,05,13.70
2021,06,07,12,06,13.70
2021,06,07,12,07,13.70
2021,06,07,12,08,13.80
2021,06,07,12,09,13.80
2021,06,07,12,10,13.90
2021,06,07,12,11,13.90
2021,06,07,12,12,13.80
2021,06,07,12,13,13.80
2021,06,07,12,14,13.80
2021,06,07,12,15,13.90
2021,06,07,12,16,14.00
2021,06,07,12,17,14.00
2021,06,07,12,18,14.00
2021,06,07,12,19,14.00
2021,06,07,12,20,14.00
2021,06,07,12,21,13.90
2021,06,07,12,22,13.80
2021,06,07,12,23,13.70
2021,06,07,12,24,13.70
2021,06,07,12,25,13.70
2021,06,07,12,26,13.80
2021,06,07,12,27,13.80
2021,06,07,12,28,13.70
2021,06,07,12,29,13.80
2021,06,07,12,30,13.90
2021,06,07,12,31,13.90
2021,06,07,12,32,13.90
2021,06,07,12,33,14.00
2021,06,07,12,34,14.10
2021,06,07,12,35,14.00
2021,06,07,12,36,14.00
2021,06,07,12,37,14.00
2021,06,07,12,38,14.10
2021,06,07,12,39,14.10
2021,06,07,12,40,14.20
2021,06,07,12,41,14.20
2021,06,07,12,42,14.20
2021,06,07,12,43,14.10
2021,06,07,12,44,14.10
2021,06,07,12,45,14.10
2021,06,07,12,46,14.10
2021,06,07,12,47,14.20
2021,06,07,12,48,14.20
2021,06,07,12,49,14.10
2021,06,07,12,50,14.10
2021,06,07,12,51,14.10
2021,06,07,12,52,14.10
2021,06,07,12,53,14.10
2021,06,07,12,54,14.10
2021,06,07,12,55,14.00
2021,06,07,12,56,14.00
2021,06,07,12,57,14.00
2021,06,07,12,58,14.00
2021,06,07,12,59,14.10
2021,06,07,13,00,14.20
2021,06,07,13,01,14.30
2021,06,07,13,02,14.30
2021,06,07,13,03,14.30
2021,06,07,13,04,14.30
2021,06,07,13,05,14.30
2021,06,07,13,06,14.30
2021,06,07,13,07,14.40
2021,06,07,13,08,14.40
2021,06,07,13,09,14.40
2021,06,07,13,10,14.40
2021,06,07,13,11,14.40
2021,06,07,13,12,14.40
2021,06,07,13,13,14.30
2021,06,07,13,14,14.30
2021,06,07,13,15,14.30
2021,06,07,13,16,14.30
2021,06,07,13,17,14.40
2021,06,07,13,18,14.40
2021,06,07,13,19,14.50
2021,06,07,13,20,14.50
2021,06,07,13,21,14.50
2021,06,07,13,22,14.60
2021,06,07,13,23,14.60
2021,06,07,13,24,14.60
2021,06,07,13,25,14.50
2021,06,07,13,26,14.50
2021,06,07,13,27,14.50
2021,06,07,13,28,14.40
2021,06,07,13,29,14.40
2021,06,07,13,30,14.30
2021,06,07,13,31,14.30
2021,06,07,13,32,14.20
2021,06,07,13,33,14.20
2021,06,07,13,34,14.20
2021,06,07,13,35,14.10
2021,06,07,13,36,14.00
2021,06,07,13,37,13.90
2021,06,07,13,38,13.80
2021,06,07,13,39,13.70
2021,06,07,13,40,13.60
2021,06,07,13,41,13.60
2021,06,07,13,42,13.60
2021,06,07,13,43,13.60
2021,06,07,13,44,13.70
2021,06,07,13,45,13.70
2021,06,07,13,46,13.70
2021,06,07,13,47,13.80
2021,06,07,13,48,13.90
2021,06,07,13,49,14.00
2021,06,07,13,50,14.00
2021,06,07,13,51,14.00
2021,06,07,13,52,14.00
2021,06,07,13,53,14.10
2021,06,07,13,54,14.00
2021,06,07,13,55,13.90
2021,06,07,13,56,13.80
2021,06,07,13,57,13.70
2021,06,07,13,58,13.70
2021,06,07,13,59,13.70
2021,06,07,14,00,13.80
2021,06,07,14,01,13.80
2021,06,07,14,02,13.80
2021,06,07,14,03,13.80
2021,06,07,14,04,13.80
2021,06,07,14,05,13.90
2021,06,07,14,06,14.00
2021,06,07,14,07,14.10
2021,06,07,14,08,14.20
2021,06,07,14,09,14.30
2021,06,07,14,10,14.30
2021,06,07,14,11,14.40
2021,06,07,14,12,14.60
2021,06,07,14,13,14.60
2021,06,07,14,14,14.70
2021,06,07,14,15,14.70
2021,06,07,14,16,14.80
2021,06,07,14,17,14.80
2021,06,07,14,18,14.80
2021,06,07,14,19,14.80
2021,06,07,14,20,14.80
2021,06,07,14,21,14.70
2021,06,07,14,22,14.70
2021,06,07,14,23,14.70
2021,06,07,14,24,14.70
2021,06,07,14,25,14.70
2021,06,07,14,26,14.80
2021,06,07,14,27,14.90
2021,06,07,14,28,15.00
2021,06,07,14,29,15.00
2021,06,07,14,30,15.10
2021,06,07,14,31,15.00
2021,06,07,14,32,14.90
2021,06,07,14,33,14.70
2021,06,07,14,34,14.50
2021,06,07,14,35,14.40
2021,06,07,14,36,14.50
2021,06,07,14,37,14.40
2021,06,07,14,38,14.50
2021,06,07,14,39,14.50
2021,06,07,14,40,14.60
2021,06,07,14,41,14.70
2021,06,07,14,42,14.80
2021,06,07,14,43,14.90
2021,06,07,14,44,15.00
2021,06,07,14,45,15.20
2021,06,07,14,46,15.20
2021,06,07,14,47,15.30
2021,06,07,14,48,15.40
2021,06,07,14,49,15.50
2021,06,07,14,50,15.50
2021,06,07,14,51,15.50
2021,06,07,14,52,15.40
2021,06,07,14,53,15.40
2021,06,07,14,54,15.30
2021,06,07,14,55,15.10
2021,06,07,14,56,15.10
2021,06,07,14,57,15.10
2021,06,07,14,58,15.00
2021,06,07,14,59,15.00
2021,06,07,15,00,15.10
2021,06,07,15,01,15.10
2021,06,07,15,02,15.20
2021,06,07,15,03,15.10
2021,06,07,15,04,15.10
2021,06,07,15,05,15.20
2021,06,07,15,06,15.30
2021,06,07,15,07,15.40
2021,06,07,15,08,15.40
2021,06,07,15,09,15.40
2021,06,07,15,10,15.50
2021,06,07,15,11,15.60
2021,06,07,15,12,15.70
2021,06,07,15,13,15.80
2021,06,07,15,14,15.90
2021,06,07,15,15,16.00
2021,06,07,15,16,16.20
2021,06,07,15,17,16.30
2021,06,07,15,18,16.30
2021,06,07,15,19,16.30
2021,06,07,15,20,16.20
2021,06,07,15,21,16.10
2021,06,07,15,22,16.10
2021,06,07,15,23,16.10
2021,06,07,15,24,16.00
2021,06,07,15,25,16.10
2021,06,07,15,26,16.20
2021,06,07,15,27,16.20
2021,06,07,15,28,16.10
2021,06,07,15,29,16.00
2021,06,07,15,30,15.90
2021,06,07,15,31,15.80
2021,06,07,15,32,15.70
2021,06,07,15,33,15.60
2021,06,07,15,34,15.60
2021,06,07,15,35,15.60
2021,06,07,15,36,15.70
2021,06,07,15,37,15.70
2021,06,07,15,38,15.70
2021,06,07,15,39,15.60
2021,06,07,15,40,15.50
2021,06,07,15,41,15.60
2021,06,07,15,42,15.70
2021,06,07,15,43,15.70
2021,06,07,15,44,15.70
2021,06,07,15,45,15.60
2021,06,07,15,46,15.60
2021,06,07,15,47,15.60
2021,06,07,15,48,15.50
2021,06,07,15,49,15.40
2021,06,07,15,50,15.40
2021,06,07,15,51,15.30
2021,06,07,15,52,15.20
2021,06,07,15,53,15.10
2021,06,07,15,54,15.10
2021,06,07,15,55,15.20
2021,06,07,15,56,15.30
2021,06,07,15,57,15.30
2021,06,07,15,58,15.20
2021,06,07,15,59,15.20
2021,06,07,16,00,15.20
2021,06,07,16,01,15.10
2021,06,07,16,02,15.10
2021,06,07,16,03,15.20
2021,06,07,16,04,15.10
2021,06,07,16,05,15.00
2021,06,07,16,06,15.00
2021,06,07,16,07,15.00
2021,06,07,16,08,15.10
2021,06,07,16,09,15.10
2021,06,07,16,10,15.20
2021,06,07,16,11,15.20
2021,06,07,16,12,15.20
2021,06,07,16,13,15.20
2021,06,07,16,14,15.30
2021,06,07,16,15,15.30
2021,06,07,16,16,15.30
2021,06,07,16,17,15.30
2021,06,07,16,18,15.30
2021,06,07,16,19,15.30
2021,06,07,16,20,15.30
2021,06,07,16,21,15.30
2021,06,07,16,22,15.40
2021,06,07,16,23,15.50
2021,06,07,16,24,15.50
2021,06,07,16,25,15.40
2021,06,07,16,26,15.50
2021,06,07,16,27,15.60
2021,06,07,16,28,15.70
2021,06,07,16,29,15.70
2021,06,07,16,30,15.70
2021,06,07,16,31,15.70
2021,06,07,16,32,15.70
2021,06,07,16,33,15.80
2021,06,07,16,34,15.80
2021,06,07,16,35,15.80
2021,06,07,16,36,15.70
2021,06,07,16,37,15.70
2021,06,07,16,38,15.70
2021,06,07,16,39,15.70
2021,06,07,16,40,15.70
2021,06,07,16,41,15.70
2021,06,07,16,42,15.70
2021,06,07,16,43,15.70
2021,06,07,16,44,15.80
2021,06,07,16,45,15.80
2021,06,07,16,46,15.70
2021,06,07,16,47,15.80
2021,06,07,16,48,15.80
2021,06,07,16,49,15.70
2021,06,07,16,50,15.70
2021,06,07,16,51,15.70
2021,06,07,16,52,15.60
2021,06,07,16,53,15.50
2021,06,07,16,54,15.40
2021,06,07,16,55,15.40
2021,06,07,16,56,15.30
2021,06,07,16,57,15.30
2021,06,07,16,58,15.30
2021,06,07,16,59,15.30
2021,06,07,17,00,15.30
2021,06,07,17,01,15.40
2021,06,07,17,02,15.40
2021,06,07,17,03,15.40
2021,06,07,17,04,15.30
2021,06,07,17,05,15.20
2021,06,07,17,06,15.10
2021,06,07,17,07,15.00
2021,06,07,17,08,14.90
2021,06,07,17,09,14.90
2021,06,07,17,10,14.90
2021,06,07,17,11,14.90
2021,06,07,17,12,14.90
2021,06,07,17,13,15.00
2021,06,07,17,14,15.10
2021,06,07,17,15,15.20
2021,06,07,17,16,15.10
2021,06,07,17,17,15.10
2021,06,07,17,18,15.10
2021,06,07,17,19,15.20
2021,06,07,17,20,15.20
2021,06,07,17,21,15.30
2021,06,07,17,22,15.30
2021,06,07,17,23,15.30
2021,06,07,17,24,15.30
2021,06,07,17,25,15.30
2021,06,07,17,26,15.30
2021,06,07,17,27,15.40
2021,06,07,17,28,15.40
2021,06,07,17,29,15.40
2021,06,07,17,30,15.40
2021,06,07,17,31,15.30
2021,06,07,17,32,15.30
2021,06,07,17,33,15.30
2021,06,07,17,34,15.30
2021,06,07,17,35,15.30
2021,06,07,17,36,15.30
2021,06,07,17,37,15.40
2021,06,07,17,38,15.40
2021,06,07,17,39,15.40
2021,06,07,17,40,15.40